Temperature
20 20 20 20 19 19 19 19 19 19 19 18 18 18 18 17 18 17 17 17 17 17 17 17 17 17 17 16 16 16 16 16 16 15 14 14 14 14 14 13 13 13 13
20 20 20 20 19 19 19 19 19 19 18 18 18 18 18 17 17 17 17 17 17 17 17 16 16 16 16 16 16 16 16 16 15 15 14 14 14 14 14 13 13 13 13
20 20 20 20 19 19 19 19 19 19 18 18 18 18 18 17 17 17 17 17 17 16 16 16 16 16 16 16 16 16 16 15 15 15 14 14 14 14 13 13 13 13 13
20 20 20 20 20 19 19 19 19 19 18 18 18 18 18 17 17 17 17 17 16 16 16 16 16 16 16 16 15 15 15 15 15 15 14 14 14 13 13 13 13 13 13
20 20 20 20 20 19 19 19 19 19 18 18 18 18 18 17 17 17 17 17 16 16 16 16 15 16 15 15 15 15 15 15 15 14 14 14 13 13 13 13 13 13 12
21 20 20 20 19 19 19 19 19 19 18 18 18 18 18 17 17 17 17 17 16 16 16 16 15 15 15 15 15 15 15 14 14 14 14 14 13 13 13 13 12 12 12
21 21 20 20 19 19 19 19 19 19 18 18 18 18 18 18 18 17 17 17 16 16 16 16 15 15 15 15 15 15 14 14 14 14 14 14 13 13 13 13 12 12 12
21 21 20 19 19 19 19 19 19 19 18 18 18 18 18 18 18 18 17 17 16 16 16 15 15 15 15 15 14 14 14 14 14 14 14 14 13 13 13 13 12 12 12
21 20 20 20 19 19 19 19 19 18 18 18 18 18 18 18 17 17 17 16 16 16 16 15 15 15 15 15 14 14 14 14 14 14 14 13 13 13 13 12 12 12 12
21 20 20 20 19 19 19 19 19 19 18 18 18 18 18 17 17 17 17 16 16 16 15 15 15 15 15 15 14 14 14 14 14 13 13 13 13 13 13 12 12 12 12
21 20 20 20 19 19 19 19 19 18 18 18 18 17 17 17 17 17 17 16 16 15 15 15 15 15 15 15 14 14 14 14 13 13 13 13 13 13 13 12 12 12 12
20 20 20 19 19 19 19 19 19 18 18 18 17 17 17 17 17 17 17 16 16 15 15 15 15 15 15 15 14 14 14 13 13 13 13 13 13 13 12 12 12 12 12
20 20 19 19 19 19 19 19 18 18 18 17 17 17 17 17 17 17 17 16 16 15 15 15 15 15 14 14 14 14 14 13 13 13 13 13 13 13 12 12 12 12 12
20 20 19 19 19 19 18 18 18 18 18 18 17 17 17 17 17 17 17 16 16 15 15 15 14 14 14 14 14 14 14 13 13 13 13 13 13 12 12 12 12 12 12
19 19 19 18 18 18 18 18 18 18 18 18 18 17 17 17 17 17 17 16 16 15 15 15 14 14 14 14 14 14 13 13 13 13 13 12 12 12 12 12 12 12 11
19 18 18 18 18 18 18 18 18 18 18 18 18 17 17 17 17 16 16 16 16 15 14 14 14 14 14 14 14 13 13 13 13 13 13 13 12 12 12 12 12 11 11
18 18 18 18 18 18 18 18 18 18 18 18 17 17 17 17 17 16 16 16 15 15 14 14 14 14 14 14 13 13 13 13 13 13 13 13 12 12 12 12 12 11 11
18 18 18 18 18 18 18 18 18 18 17 17 17 17 17 17 16 16 16 15 15 15 14 14 14 14 13 13 13 13 13 13 13 13 12 12 12 12 12 12 11 11 11
17 17 17 17 17 18 18 18 18 17 17 17 17 17 17 16 16 16 15 15 15 14 14 14 14 13 13 13 13 13 13 13 12 12 12 12 12 12 12 11 11 11 11
17 17 17 17 17 17 17 17 18 17 17 17 16 16 16 16 16 15 15 15 14 14 14 14 14 13 13 13 13 12 12 12 12 12 12 12 11 11 11 11 11 11 11
16 17 17 17 17 17 17 17 17 17 17 17 16 16 16 16 15 15 15 15 14 14 14 13 13 13 13 13 12 12 12 12 12 12 11 11 11 11 11 11 11 11 10
16 16 16 16 16 16 16 17 17 16 16 16 16 16 16 15 15 15 15 14 14 14 14 13 13 13 12 12 12 12 11 11 11 11 11 11 11 11 10 10 10 10 10
16 16 16 16 16 16 16 16 16 16 16 16 16 16 15 15 15 14 14 14 14 13 13 13 12 12 12 12 12 11 11 11 11 11 11 10 10 10 10 10 10 10 10
16 16 16 16 16 16 16 15 15 16 16 15 15 15 15 15 14 14 14 13 13 13 13 12 12 12 12 11 11 11 11 11 11 11 11 10 10 10 9 9 9 9 9
15 15 15 16 16 16 15 15 15 15 15 15 15 14 14 14 14 13 13 13 13 12 12 12 12 12 11 11 11 11 11 11 11 10 10 10 10 9 9 9 9 9 8
15 15 15 15 15 15 15 15 15 15 14 14 14 14 13 13 13 13 13 12 12 12 12 11 11 11 11 11 11 11 10 10 10 10 10 9 9 9 9 8 8 8 8
Wind_Speed
8 6 5 5 5 3 2 2 2 2 2 2 2 2 2 2 2 1 1 2 1 2 2 2 3 2 2 2 1 1 1 2 3 3 3 3 3 3 5 6 8 9 7
8 7 6 5 5 4 3 3 3 2 2 2 2 1 1 2 1 1 1 1 1 2 2 2 2 2 3 2 2 2 1 2 3 4 3 3 3 3 4 4 5 7 7
9 8 7 6 5 4 3 3 3 3 2 2 2 2 1 1 1 1 0 0 1 2 2 1 1 2 2 2 2 2 1 2 3 3 3 2 2 3 3 2 3 4 6
9 9 7 6 5 5 4 3 3 3 3 2 2 2 2 2 1 1 1 0 1 1 1 1 2 2 2 2 1 1 1 1 2 3 3 3 2 2 2 2 2 2 3
9 8 8 7 6 5 5 4 4 4 4 3 2 2 2 2 1 1 1 2 1 1 1 2 3 4 5 3 2 1 1 0 1 2 3 3 2 2 2 2 2 3 2
7 7 7 7 7 6 6 5 4 4 3 3 3 2 2 1 2 3 1 1 1 1 1 1 2 4 3 3 4 3 2 0 0 0 1 2 2 2 2 2 2 2 1
7 7 7 7 7 7 7 6 6 5 4 4 3 3 2 2 2 2 0 2 2 1 1 1 2 2 3 2 1 1 2 2 1 1 1 1 1 2 2 3 2 2 2
7 6 6 6 6 6 6 6 6 5 4 4 4 4 3 3 3 2 1 3 3 2 2 2 1 1 1 1 2 2 1 1 2 2 1 1 1 1 2 3 4 3 3
8 7 7 7 6 6 6 6 5 5 4 4 4 4 4 3 4 3 2 3 3 3 3 3 2 2 2 1 2 2 2 1 1 1 3 3 4 4 2 1 2 2 3
8 8 6 6 6 6 5 5 5 5 5 5 4 5 5 4 5 5 4 3 3 3 3 4 3 3 4 3 3 3 3 2 1 1 2 3 4 5 6 3 3 3 3
7 7 6 5 5 5 5 5 5 5 5 5 5 5 5 5 7 8 7 4 4 3 3 3 3 6 6 6 5 4 4 3 2 3 3 4 4 4 4 5 4 4 4
6 7 6 6 6 6 5 5 5 5 6 5 5 5 5 6 7 8 9 8 5 4 3 2 2 6 7 6 5 5 5 3 3 4 3 4 4 4 4 4 6 6 5
6 6 5 5 5 4 6 6 6 6 6 6 6 6 5 5 6 8 10 9 8 4 3 2 3 6 6 5 7 7 5 4 4 4 4 4 4 4 4 4 5 6 7
5 6 5 6 6 5 5 6 6 6 6 5 5 5 4 4 4 5 5 6 6 5 4 3 5 6 6 5 4 5 5 5 4 5 4 4 3 4 4 4 4 4 5
4 5 6 7 7 5 5 4 5 4 4 5 4 4 4 4 4 6 6 5 5 5 4 3 3 4 5 5 5 5 5 5 6 6 5 4 4 3 4 4 4 4 5
5 5 6 6 6 6 6 4 4 5 7 7 6 5 4 5 6 8 7 6 6 6 5 5 5 6 6 6 6 6 6 6 6 6 5 5 5 4 3 3 4 4 4
5 5 5 6 6 7 7 6 5 4 4 6 7 7 6 6 6 8 8 6 6 7 6 6 6 6 6 6 6 6 5 5 5 5 6 5 4 4 4 4 4 4 4
5 5 5 5 6 6 6 6 6 6 5 5 6 8 8 8 8 8 7 4 4 6 7 7 7 6 6 6 5 5 4 4 4 4 4 4 4 4 4 4 4 4 4
5 4 4 5 5 5 5 6 6 6 5 5 4 5 7 7 7 7 8 6 6 7 7 7 6 6 6 5 4 4 4 4 4 4 4 4 4 4 5 5 4 6 5
4 5 4 4 5 5 5 5 5 4 5 5 4 3 4 4 4 5 7 7 7 6 6 6 6 6 5 4 4 4 5 4 4 4 4 4 5 4 5 6 5 4 4
4 4 4 4 4 4 4 4 4 5 4 4 3 4 7 6 6 6 6 7 6 6 6 6 6 5 5 4 4 5 5 4 4 4 4 4 4 4 4 4 4 4 3
4 4 5 5 4 4 4 4 4 4 4 4 3 3 8 6 6 5 6 6 6 5 5 5 5 5 5 4 4 4 5 5 4 4 4 4 4 4 4 3 3 3 3
4 5 5 4 4 4 4 4 4 4 4 4 4 3 4 5 5 4 5 4 4 5 4 4 4 4 4 3 3 4 4 4 4 3 3 4 4 4 3 3 4 3 3
5 5 5 4 4 4 4 4 4 4 4 4 3 2 3 3 4 4 4 3 3 4 4 4 4 5 5 3 3 3 2 2 3 3 4 4 4 3 3 3 4 4 3
4 5 5 5 4 4 3 3 4 3 3 3 3 2 2 2 2 2 2 1 2 2 3 3 3 3 4 4 4 2 1 1 1 2 2 3 4 3 3 3 3 3 3
4 4 4 4 3 3 3 3 4 4 3 3 2 2 2 2 2 1 1 2 2 3 3 3 3 4 3 3 2 1 2 2 1 1 2 2 2 2 2 3 4 3 4
Wind_Direction
169 166 157 164 168 170 168 137 121 107 100 93 96 95 104 103 101 71 16 100 71 44 34 53 31 24 13 23 41 67 64 104 131 131 128 133 129 117 142 152 151 148 147
166 162 164 163 167 177 173 157 149 146 141 130 131 128 145 122 118 117 331 65 77 62 49 43 18 23 19 12 12 51 66 107 133 142 144 145 147 143 161 189 167 160 155
168 167 166 168 172 179 176 164 161 159 160 153 149 149 141 115 120 128 271 28 72 77 73 65 36 27 11 15 17 44 48 106 127 150 154 149 154 157 159 199 160 155 162
168 170 170 174 175 176 183 175 175 178 177 175 159 165 172 165 158 191 213 196 97 89 93 87 65 38 27 350 8 44 26 118 146 160 155 153 149 161 171 198 170 184 177
166 173 174 175 175 175 179 183 184 189 193 171 165 174 196 190 197 179 253 203 143 114 98 102 100 83 66 40 30 11 15 48 174 180 170 150 155 160 196 210 203 190 184
166 175 174 174 176 179 180 182 183 190 185 160 176 184 199 197 96 91 32 299 162 169 147 115 139 125 107 89 65 53 52 86 37 263 178 174 171 173 194 219 214 187 214
171 177 172 174 179 183 188 182 184 184 179 177 182 177 164 143 135 115 152 268 235 224 174 225 273 147 155 158 155 130 80 86 134 211 247 238 184 175 200 228 222 217 230
172 177 175 179 184 182 186 184 181 180 182 183 184 186 180 178 171 162 209 236 241 206 187 213 252 138 213 179 212 204 205 217 236 226 228 238 192 186 220 228 231 224 220
176 182 184 185 185 184 188 185 182 184 188 192 189 189 191 178 182 183 198 237 236 222 202 205 210 182 183 203 230 237 232 229 231 167 175 184 183 192 206 249 241 229 239
182 185 186 186 186 188 188 184 184 188 196 198 196 193 194 186 187 190 197 231 238 232 208 188 192 191 184 202 229 231 241 249 245 204 196 216 213 213 212 214 238 247 255
175 176 179 185 186 182 180 186 186 190 199 200 203 199 197 196 187 194 198 221 247 244 232 209 195 181 188 213 238 236 238 245 247 236 223 214 215 215 211 214 221 228 245
169 175 178 185 199 194 182 190 193 194 200 204 212 216 207 198 192 201 206 218 249 257 250 244 199 188 200 216 232 239 235 240 250 244 235 228 219 215 212 214 217 224 231
175 174 175 184 194 190 191 199 202 202 212 212 211 216 215 198 190 194 204 221 240 251 272 252 193 201 211 224 228 231 226 237 247 248 246 237 223 216 212 210 217 219 230
177 175 181 185 194 197 201 205 208 207 214 215 216 220 210 198 190 188 200 215 227 237 262 249 204 206 220 231 229 228 229 238 240 250 254 245 227 216 214 213 219 217 230
182 185 193 199 199 198 207 220 215 211 207 217 224 223 217 215 208 186 191 204 214 214 214 220 223 220 223 228 229 227 225 229 241 247 251 254 248 239 229 216 217 231 235
189 197 208 206 198 204 207 214 219 219 195 194 200 208 212 201 187 183 188 198 209 195 199 224 230 231 234 236 234 230 225 226 236 241 241 241 241 240 238 231 221 232 245
202 209 219 217 210 212 213 211 216 222 222 213 209 209 211 201 193 191 196 204 207 187 210 233 234 233 239 243 239 237 236 231 231 237 240 241 240 240 237 237 234 237 242
214 217 224 228 227 221 218 218 219 219 216 220 216 210 208 206 200 194 183 170 209 207 225 235 239 238 241 246 246 245 246 240 236 242 247 251 248 247 248 241 234 238 243
225 231 231 244 243 232 224 226 228 226 226 219 206 195 202 204 198 194 183 210 226 230 233 236 241 242 241 239 240 238 242 247 243 240 244 249 254 256 256 253 245 237 240
229 239 237 247 255 248 241 240 237 228 226 225 218 195 167 178 202 200 205 218 230 237 239 239 245 249 247 248 242 241 246 243 240 243 248 249 254 258 262 260 255 248 240
236 232 237 244 252 262 260 253 249 245 242 242 222 189 182 204 216 216 217 223 230 234 236 240 242 248 245 240 244 250 256 255 245 250 256 256 257 261 265 265 262 260 260
245 237 233 238 249 265 270 265 255 251 247 247 246 211 187 207 222 223 227 227 230 234 238 239 250 256 258 251 251 255 259 259 253 253 260 261 263 267 269 271 270 265 252
251 244 239 236 241 244 253 256 256 253 253 253 247 231 203 219 226 227 234 233 232 234 235 234 245 257 259 264 257 249 253 262 262 253 257 263 265 265 265 266 266 264 262
260 257 255 253 247 245 247 250 253 258 261 265 269 262 241 233 239 241 243 242 241 232 226 229 231 248 255 252 264 264 252 262 271 257 246 253 262 265 267 264 263 262 261
270 267 265 262 258 260 262 264 268 266 268 271 272 269 262 253 255 265 268 261 276 277 265 247 222 227 245 254 258 260 274 261 265 296 269 246 256 265 277 282 282 282 277
274 278 277 272 268 268 270 277 281 277 267 266 264 256 251 251 247 252 264 259 262 271 276 265 259 247 228 241 261 90 135 124 87 349 309 274 264 266 284 282 283 278 273
Height
1527 1528 1530 1531 1533 1534 1534 1535 1535 1535 1536 1536 1536 1536 1536 1536 1536 1535 1535 1535 1535 1534 1534 1534 1534 1534 1534 1533 1533 1533 1534 1534 1534 1534 1535 1535 1535 1535 1535 1535 1534 1534 1534
1525 1527 1529 1530 1532 1533 1533 1534 1534 1534 1535 1535 1535 1535 1535 1535 1535 1535 1535 1534 1534 1534 1533 1533 1533 1533 1533 1533 1532 1532 1532 1533 1533 1533 1533 1533 1534 1534 1534 1534 1534 1534 1534
1524 1525 1527 1529 1530 1531 1532 1533 1533 1533 1534 1534 1534 1534 1534 1534 1534 1534 1534 1534 1533 1533 1533 1532 1532 1532 1531 1531 1531 1531 1531 1532 1532 1532 1532 1532 1532 1533 1533 1533 1533 1533 1533
1522 1524 1525 1527 1528 1529 1530 1531 1532 1532 1533 1533 1533 1533 1533 1533 1533 1533 1533 1533 1532 1532 1532 1531 1531 1531 1530 1530 1530 1530 1530 1530 1531 1531 1531 1531 1531 1531 1532 1532 1532 1532 1532
1520 1522 1523 1525 1526 1528 1529 1530 1530 1531 1532 1532 1532 1532 1532 1532 1532 1532 1532 1532 1532 1531 1531 1530 1530 1530 1529 1529 1529 1529 1529 1529 1529 1529 1529 1530 1529 1529 1530 1530 1530 1531 1531
1518 1520 1522 1523 1524 1526 1527 1528 1529 1529 1530 1530 1531 1531 1531 1531 1531 1531 1531 1531 1530 1530 1529 1529 1529 1528 1528 1527 1527 1527 1527 1527 1527 1528 1528 1528 1527 1528 1528 1528 1529 1529 1529
1515 1518 1520 1521 1522 1523 1525 1526 1526 1527 1528 1528 1529 1529 1529 1529 1529 1529 1529 1529 1529 1529 1528 1528 1528 1527 1526 1526 1526 1526 1526 1526 1526 1526 1526 1526 1526 1526 1526 1526 1527 1527 1527
1513 1515 1517 1518 1520 1521 1522 1523 1524 1525 1526 1526 1527 1527 1527 1526 1527 1527 1527 1527 1527 1526 1526 1526 1526 1525 1525 1524 1524 1524 1524 1524 1524 1524 1524 1524 1524 1524 1524 1524 1524 1524 1524
1510 1512 1514 1516 1517 1519 1520 1521 1522 1523 1523 1524 1525 1525 1525 1525 1525 1525 1525 1524 1524 1524 1524 1524 1523 1523 1523 1522 1522 1521 1521 1521 1522 1522 1522 1521 1521 1521 1521 1521 1521 1521 1521
1507 1509 1511 1513 1514 1516 1517 1518 1519 1520 1520 1521 1521 1522 1522 1522 1522 1522 1522 1522 1522 1522 1522 1521 1521 1521 1521 1520 1520 1519 1519 1519 1519 1519 1519 1518 1518 1518 1518 1518 1518 1518 1518
1504 1507 1508 1510 1511 1513 1514 1515 1516 1517 1517 1518 1518 1519 1519 1519 1519 1519 1520 1519 1519 1519 1519 1519 1518 1518 1518 1518 1517 1517 1517 1517 1516 1516 1516 1515 1515 1515 1514 1514 1514 1515 1514
1502 1504 1505 1507 1509 1510 1511 1512 1513 1514 1514 1515 1515 1516 1516 1516 1516 1516 1517 1517 1517 1517 1517 1516 1516 1516 1515 1515 1515 1514 1514 1514 1514 1513 1513 1512 1512 1511 1511 1511 1511 1511 1511
1499 1500 1502 1504 1505 1507 1507 1508 1509 1510 1511 1511 1512 1512 1512 1512 1513 1513 1513 1514 1514 1514 1513 1513 1513 1513 1513 1512 1512 1512 1511 1511 1510 1510 1510 1509 1509 1509 1508 1508 1507 1507 1507
1495 1497 1499 1500 1501 1503 1504 1505 1505 1506 1507 1508 1508 1509 1509 1509 1509 1509 1509 1510 1510 1510 1510 1510 1510 1509 1509 1509 1508 1508 1508 1507 1507 1507 1507 1506 1506 1505 1505 1504 1504 1503 1502
1492 1494 1495 1497 1498 1499 1500 1501 1502 1502 1503 1504 1504 1505 1506 1505 1505 1506 1505 1506 1506 1506 1506 1506 1506 1505 1505 1504 1504 1504 1504 1504 1503 1503 1502 1502 1502 1501 1501 1501 1500 1499 1498
1489 1491 1493 1494 1495 1496 1497 1498 1498 1499 1499 1499 1500 1501 1501 1502 1502 1502 1502 1502 1502 1503 1502 1501 1501 1501 1500 1500 1500 1500 1499 1499 1498 1499 1498 1498 1497 1497 1497 1496 1496 1495 1494
1485 1487 1489 1490 1491 1492 1492 1493 1494 1494 1495 1495 1496 1496 1497 1497 1497 1497 1497 1498 1498 1498 1497 1497 1496 1496 1496 1496 1496 1495 1495 1494 1494 1494 1493 1493 1493 1493 1492 1492 1492 1491 1490
1482 1483 1484 1486 1487 1488 1488 1489 1490 1490 1490 1490 1490 1491 1492 1492 1493 1493 1493 1493 1493 1492 1492 1492 1492 1492 1492 1491 1491 1491 1490 1490 1489 1489 1489 1488 1488 1488 1487 1486 1486 1486 1485
1479 1480 1481 1482 1483 1483 1484 1485 1485 1485 1486 1486 1486 1486 1486 1487 1488 1488 1488 1488 1487 1487 1487 1487 1487 1487 1487 1486 1486 1485 1485 1485 1484 1484 1484 1483 1483 1483 1482 1482 1481 1480 1480
1475 1476 1477 1478 1479 1479 1480 1481 1481 1481 1481 1481 1481 1481 1481 1482 1482 1482 1482 1482 1482 1482 1482 1482 1482 1482 1482 1481 1481 1480 1480 1479 1479 1479 1479 1478 1478 1478 1477 1477 1476 1476 1475
1472 1473 1474 1474 1475 1475 1476 1476 1476 1477 1477 1477 1477 1476 1476 1477 1477 1477 1478 1477 1477 1477 1477 1477 1477 1477 1477 1476 1476 1476 1475 1475 1474 1474 1473 1473 1473 1473 1472 1472 1472 1471 1470
1469 1469 1470 1470 1471 1471 1471 1471 1472 1472 1472 1472 1472 1472 1472 1472 1472 1473 1473 1473 1472 1472 1472 1472 1472 1472 1472 1472 1471 1471 1470 1470 1470 1469 1469 1468 1468 1468 1467 1467 1466 1466 1466
1465 1466 1467 1467 1467 1467 1467 1467 1467 1467 1468 1468 1467 1467 1467 1467 1468 1468 1468 1468 1468 1467 1467 1467 1467 1467 1467 1467 1466 1466 1465 1465 1465 1465 1464 1464 1463 1463 1463 1462 1462 1462 1462
1463 1463 1463 1463 1463 1463 1463 1463 1463 1463 1463 1463 1463 1463 1463 1463 1463 1463 1462 1463 1463 1462 1462 1462 1462 1462 1462 1461 1461 1461 1461 1460 1460 1460 1459 1459 1459 1459 1458 1458 1458 1458 1457
1460 1460 1459 1459 1459 1459 1459 1460 1460 1459 1460 1459 1459 1459 1459 1459 1458 1458 1458 1458 1458 1458 1457 1457 1457 1456 1456 1456 1456 1456 1456 1456 1456 1455 1455 1454 1454 1454 1454 1454 1454 1453 1453
1456 1456 1456 1456 1455 1455 1455 1455 1455 1455 1455 1455 1455 1455 1455 1454 1454 1453 1453 1453 1453 1453 1453 1453 1452 1451 1451 1451 1451 1451 1451 1451 1451 1451 1450 1450 1449 1449 1449 1450 1450 1450 1449